Dewpoint
53 54 54 55 56 56 55 55 54 54 54 55 55 56 57 57 57 57 57 57 57 57 57 56 56 54 48 43 44 50 53 54 53 52 49 48 44 45 42 42 43 34 32 33 32 34 36
53 54 54 55 55 55 55 54 54 55 55 55 56 56 56 56 56 57 57 57 57 57 58 56 54 54 46 39 48 50 50 51 49 50 48 48 46 47 45 43 37 33 31 32 34 33 37
53 54 54 54 54 55 56 54 55 55 55 56 56 56 56 56 56 56 56 56 56 56 58 55 53 44 42 43 47 49 49 49 48 48 48 49 50 48 45 36 33 32 30 32 31 32 35
54 54 54 54 55 55 55 55 54 54 55 56 55 55 55 55 56 56 56 54 55 56 56 55 54 45 41 46 49 44 45 47 47 46 48 50 50 47 40 38 31 26 29 28 31 33 35
54 54 54 55 55 55 55 55 55 55 55 55 55 55 55 55 56 56 55 53 54 53 54 52 45 45 40 48 43 44 45 45 46 47 48 47 45 40 37 32 27 27 27 24 28 32 33
53 54 54 54 55 55 55 55 55 54 54 55 55 55 55 55 56 56 55 52 52 49 46 40 40 42 41 41 44 45 45 46 45 47 46 45 40 33 33 28 24 22 21 20 24 29 30
53 53 54 54 54 55 55 55 55 54 54 55 55 55 55 55 56 55 52 47 41 41 40 37 37 37 39 43 45 43 46 46 44 43 39 39 33 31 31 28 25 20 18 18 26 29 30
53 53 54 54 55 55 55 55 55 55 54 55 55 55 55 54 55 54 50 39 42 45 38 38 37 37 39 42 37 41 44 41 40 38 38 35 35 30 30 30 28 25 16 25 27 28 27
53 53 54 54 55 55 55 55 55 55 54 54 55 54 54 54 53 50 43 43 47 46 39 31 35 34 36 39 37 37 39 41 38 35 38 36 30 28 26 27 24 22 19 24 26 25 25
53 53 54 54 55 55 55 55 56 55 54 53 54 53 54 53 47 45 42 45 47 47 40 29 31 33 34 39 37 39 38 37 35 32 37 33 30 29 27 25 27 24 24 25 25 26 26
52 53 53 54 54 54 54 55 55 56 55 53 54 53 52 51 47 43 45 46 47 44 25 29 31 36 35 35 35 37 39 37 31 29 31 31 32 32 28 27 28 25 25 27 27 27 28
51 52 52 53 54 54 54 55 55 55 55 54 54 52 51 49 47 46 47 47 44 38 20 28 33 30 31 31 31 32 34 35 33 31 31 32 34 33 33 29 25 26 23 24 24 26 26
50 51 52 52 53 54 55 55 55 55 55 54 53 51 47 43 44 47 47 45 39 29 29 27 30 30 28 27 28 31 31 29 29 29 32 31 30 33 33 31 30 27 22 26 23 23 24
51 52 53 53 53 54 54 55 55 55 54 54 53 50 48 44 48 48 46 41 25 27 27 31 31 29 27 27 27 28 29 30 30 28 30 28 26 31 32 31 29 26 25 29 19 21 21
52 53 53 53 54 53 53 54 54 54 54 53 51 50 48 48 48 47 43 35 32 29 30 30 30 25 26 27 27 25 28 29 29 29 27 25 27 31 32 31 30 28 28 25 25 24 22
52 53 53 54 53 53 53 53 54 54 53 53 49 46 47 44 48 46 42 34 32 33 32 32 25 26 21 23 25 23 25 29 29 30 29 24 22 28 30 31 31 28 26 27 27 20 20
52 52 53 54 54 53 54 53 53 54 53 52 49 43 46 45 47 43 38 33 33 33 34 32 29 26 23 23 24 24 24 31 31 31 30 28 23 25 28 25 25 27 25 22 24 24 22
53 52 53 53 53 53 53 53 53 54 53 51 49 46 47 45 43 36 34 34 35 33 36 34 32 29 24 21 22 24 25 30 32 32 28 28 27 22 22 28 29 28 24 23 23 20 19
53 53 53 53 53 53 53 53 53 53 52 46 42 42 49 46 38 35 34 33 34 33 31 31 28 29 27 21 22 23 26 36 32 32 28 29 24 22 22 25 28 26 24 25 22 23 21
54 53 53 53 53 53 53 53 52 53 52 47 41 42 43 41 35 32 30 29 30 37 32 30 29 29 25 22 22 21 21 33 35 32 36 32 21 19 20 19 25 23 26 25 22 24 21
54 54 53 54 53 53 52 52 52 52 52 46 40 39 37 36 34 31 31 31 29 30 32 30 28 27 25 22 20 20 25 28 32 34 30 24 17 18 18 15 20 22 21 26 23 25 19
54 54 54 54 53 53 52 52 52 52 51 47 40 37 36 32 33 32 31 30 29 29 29 29 28 28 27 25 25 23 24 24 24 30 26 26 22 23 21 20 19 17 18 17 22 25 23
55 54 54 54 54 53 52 51 51 52 51 45 43 41 39 38 31 29 31 28 30 32 32 32 30 28 27 31 31 30 30 29 29 29 27 26 24 24 24 24 24 21 22 21 17 20 22
55 55 55 54 54 53 52 51 51 51 50 48 44 43 38 31 28 27 31 31 30 32 31 31 31 29 34 33 32 32 30 30 29 29 30 28 24 25 24 25 17 24 21 23 21 22 21
54 54 55 55 55 54 53 51 51 51 50 47 45 44 40 33 27 26 30 30 31 31 32 32 33 33 34 31 29 27 25 25 27 28 29 29 28 25 24 24 24 20 21 21 20 20 22
49 50 50 51 51 52 53 53 52 51 50 48 47 46 43 37 30 31 30 31 30 28 30 32 34 35 33 32 28 24 21 20 23 26 29 29 29 27 25 21 17 19 21 22 22 18 22
47 47 47 47 48 49 50 51 52 52 51 49 48 47 45 39 36 34 31 31 32 31 30 31 33 33 33 30 27 24 22 22 18 21 24 26 26 25 25 23 23 21 22 23 19 20 24
46 45 45 45 46 47 49 49 50 50 51 50 48 47 45 41 41 38 37 34 34 33 30 32 32 32 31 29 27 26 24 24 22 22 24 25 25 25 24 22 19 24 23 21 26 27 27
47 47 46 46 45 45 45 47 47 48 49 51 48 46 45 44 42 41 40 41 38 36 36 34 33 32 33 32 31 29 26 26 24 20 24 21 23 22 24 25 27 26 26 26 29 29 29
Lifted_Index
10 9 9 8 8 8 8 8 8 8 8 8 8 8 8 8 8 8 7 6 5 4 3 3 4 3 2 1 0 0 0 -0 -0 0 1 1 1 0 0 -1 -1 -0 1 1 1 -0 -1
10 9 9 9 8 8 8 8 8 8 8 7 7 8 8 8 8 8 7 6 5 4 3 3 4 3 2 1 1 0 -0 -0 0 0 1 1 1 1 0 -0 -0 0 1 1 1 0 -1
10 9 9 9 9 8 8 8 8 8 8 7 7 8 8 8 8 8 7 7 5 4 3 3 3 3 2 2 1 1 0 0 0 1 1 1 1 1 1 0 0 1 1 1 1 0 -0
9 9 9 9 9 8 8 8 8 8 8 8 8 8 8 8 8 8 7 7 6 4 3 3 3 2 2 2 1 1 0 0 0 1 1 1 1 1 1 1 1 1 1 2 1 1 0
9 9 9 9 9 9 8 8 8 8 8 8 8 8 9 8 8 8 8 7 6 5 4 3 2 2 2 2 1 1 0 0 0 0 1 1 1 1 1 1 1 2 2 2 2 1 1
10 9 9 9 9 9 8 8 8 9 9 9 9 9 9 9 8 8 8 7 6 5 4 3 2 2 2 2 1 1 0 0 0 0 1 1 1 1 1 1 1 1 1 1 1 1 1
10 10 10 9 9 9 9 8 9 9 9 9 9 9 9 9 9 9 8 7 6 5 4 3 2 2 2 2 2 1 1 0 1 1 1 1 1 1 1 0 0 1 1 1 1 1 1
10 10 10 10 9 9 9 9 9 9 9 9 9 9 9 10 10 9 8 8 7 5 4 3 3 3 3 2 2 2 1 1 1 1 1 1 1 1 0 0 0 0 0 0 0 1 0
10 10 10 10 9 9 9 9 9 9 10 10 10 10 10 10 10 9 9 8 8 6 4 3 3 3 3 2 2 2 2 1 1 1 1 1 1 1 0 0 -0 -0 -0 0 0 0 -0
10 10 10 10 9 9 9 9 9 9 10 10 10 10 11 11 10 9 9 9 8 6 4 3 3 3 3 2 2 2 2 2 1 1 1 1 1 1 0 -0 -0 -0 -0 0 0 0 -0
10 10 10 10 10 10 9 9 9 9 10 10 10 10 11 11 10 9 10 9 8 6 3 3 3 3 3 2 2 2 2 2 1 1 1 1 0 0 0 -0 -0 -0 -0 0 0 0 0
10 10 10 10 10 10 9 9 9 9 10 10 11 11 11 10 10 10 10 9 7 4 3 3 3 3 3 2 2 2 2 2 1 1 0 0 -0 0 0 0 0 0 0 0 0 1 1
10 10 10 10 10 10 10 9 9 9 10 10 11 11 11 10 10 10 10 8 5 4 4 4 4 3 3 3 2 2 1 1 1 1 0 -0 0 0 1 1 1 1 1 0 0 1 1
10 10 10 10 10 10 10 9 9 9 10 11 11 11 10 10 10 10 8 6 5 5 5 5 4 3 3 3 3 2 1 1 1 1 1 0 1 1 1 1 2 2 2 1 1 1 1
10 10 10 10 10 10 10 10 10 10 10 11 11 10 10 10 10 9 7 5 5 6 7 6 4 4 3 3 3 3 2 2 2 2 2 1 2 2 3 3 3 3 3 3 2 1 1
10 10 10 10 10 10 10 10 10 10 10 10 9 9 9 10 10 8 6 5 6 7 8 6 5 4 4 4 4 3 3 3 3 3 3 3 3 4 4 4 4 4 4 4 3 2 1
10 10 9 9 9 9 9 9 9 9 10 9 8 7 9 10 8 7 6 6 7 8 8 7 7 6 5 4 4 4 4 4 5 4 4 4 4 4 5 5 5 5 5 5 4 3 2
10 9 9 9 9 9 9 9 9 9 9 8 6 6 8 9 7 6 6 7 7 8 8 8 7 7 6 5 4 4 4 5 6 5 5 4 4 3 4 5 5 5 5 6 5 4 3
9 9 8 8 8 8 8 8 8 9 9 7 5 6 7 8 7 6 6 7 7 8 8 8 8 8 7 6 5 5 5 6 6 6 6 5 4 2 2 4 4 5 5 6 5 5 4
8 8 8 8 8 8 8 8 8 9 9 7 6 5 6 7 6 5 6 6 7 7 8 8 8 7 7 6 6 6 6 7 7 7 7 6 4 3 3 3 4 4 5 5 5 4 4
7 7 8 8 7 7 7 7 7 8 9 7 5 5 5 5 5 5 5 5 6 7 8 8 7 7 7 6 6 6 6 7 7 8 8 7 5 4 4 4 4 4 4 5 4 4 3
6 6 7 7 7 7 6 7 7 8 8 7 6 6 6 5 4 4 5 5 6 7 8 8 8 7 7 7 7 7 7 7 8 8 8 7 5 4 5 5 5 4 4 4 4 4 4
6 6 6 7 7 6 6 7 7 8 8 8 8 8 7 5 5 4 5 5 6 7 8 8 8 8 8 8 8 8 8 8 8 8 8 7 6 5 4 4 4 4 5 5 5 5 5
5 5 6 6 6 6 6 6 7 7 7 8 9 9 7 5 5 5 5 6 6 7 7 8 9 9 9 9 8 8 8 7 8 8 8 8 7 6 5 4 4 5 6 6 6 7 7
5 5 5 6 6 6 6 6 7 7 7 8 8 9 7 6 6 6 6 6 6 7 7 8 9 10 10 9 7 6 6 6 6 7 8 8 7 6 5 4 4 6 7 8 8 7 7
5 5 5 5 6 6 6 6 6 7 7 7 8 8 7 7 7 7 7 7 7 7 7 8 9 10 10 8 6 5 4 5 5 6 7 7 7 6 5 4 5 6 8 8 8 7 8
7 7 6 6 6 6 6 6 6 7 7 7 7 8 7 7 7 7 7 7 7 7 7 8 8 9 9 7 5 5 5 5 5 5 6 6 6 5 5 4 5 7 8 9 8 8 9
9 9 8 7 7 7 6 6 7 7 7 7 7 7 7 7 7 7 7 7 7 7 7 7 8 8 8 7 6 6 6 6 6 6 6 5 5 5 5 5 6 8 9 9 9 10 10
11 10 9 8 8 8 7 7 7 7 7 7 7 7 8 7 7 7 7 7 7 7 7 8 8 8 8 7 7 7 6 6 6 6 6 6 5 5 6 6 6 8 9 10 10 10 11